Location: Observatory
(52.1446°N, 0.4624°W)
Time: 00:44:10
(UTC+01:00)

ISS - Pass Details

Date: 01 April 2019
Orbit: 408 x 410 km, 51.6° (Epoch: 26 April)

Event Time Altitude Azimuth Distance (km) Brightness Sun altitude
Rises 20:42:50 0° 278° (W) 2,340 1.8 -10.8°
Reaches altitude 10° 20:44:56 10° 276° (W) 1,477 0.4 -11.1°
Maximum altitude 20:48:14 69° 193° (SSW) 443 -3.7 -11.6°
Enters shadow 20:50:19 21° 113° (ESE) 996 -2.5 -11.8°
